map of ADJ home
ADJ - Airport
Location
City:  Amman, Jordan
Name:Marka International Airport
ICAO:OJAM
IATA:ADJ

Details
Type:Airport (Aerodrome, Airfield)
Use:Public/Civil, Military, International (customs port of entry)
Latitude:3158'22"N (31.972703)
Longitude:3559'30"E (35.991569)
Datum:WGS 1984
Elevation:2555 ft (779 m)
Variation:4.72E (WMM2015 magnetic declination)
0.08 annual change
Runways:1
Longest:10745 × 148 ft (3275 × 45 m), paved

Time
Time Zone:UTC+2 (DST+3)
Local Time:

Weather
METAR:OJAM 261600Z 22008KT 3000 RA FEW025CB OVC050 12/09 Q1010 NOSIG
TAF:OJAM 261050Z 2612/2718 28010KT 4000 DU SCT030 SCT035 PROB40 2612/2618 27018KT 2000 SHRA FEW030TCU BKN030 BKN080

Related Locations
Nearby:
Farthest:RVV: 11832 mi / 19042 km
Raivavae, Tubuai Islands, Austral Islands, PF

Find:

   beyond  
but within

Other Information
Maps:
NOTAMs:
Links:
Sources:

  
flag of Jordan   

Airport Diagram

Airport diagram for ADJ

Larger airport diagram (OBSOLETE) from NGA

Sectional Chart

Flight Planning
at skyvector.com

Satellite Image

Google Maps Satellite view

 

Copyright © 2004-2018 Karl L. Swartz. All rights reserved.
The Great Circle Mapper name and logo are trademarks of the Great Circle Mapper.
All other trademarks mentioned herein belong to their respective owners.
Please see credits for attibutions and further copyright information.

  Follow gcmap on Facebook Follow gcmap on Twitter Follow gcmap on Google+ GCmap on LinkedIn

hCard Microformat

Geo Microformat